(149150) = 2002 EO141

Discovered at Palomar on 2002-03-12 by NEAT.

Orbit

Orbit type: Main Belt

Note: WebGL enabled browser required.

epoch2024-03-31.0
epoch JD2460400.5
perihelion date2023-07-25.02054
perihelion JD2460150.52054
argument of perihelion (°)64.73949
ascending node (°)10.21080
inclination (°)3.47905
eccentricity0.1401677
perihelion distance (AU)2.7263374
Tisserand w.r.t. Jupiter3.2
ΔV w.r.t. Earth (km/sec)10.4
semimajor axis (AU)3.1707779
mean anomaly (°)43.63746
mean daily motion (°/day)0.17456420
aphelion distance (AU)3.615
period (years)5.65
P-vector [x]0.25995258
P-vector [y]0.86267792
P-vector [z]0.43383346
Q-vector [x]-0.96556146
Q-vector [y]0.22721986
Q-vector [z]0.12673673
absolute magnitude15.85
phase slope0.15
uncertainty0
referenceMPEC 2024-C107
observations used501
oppositions18
arc length (days)23146
first opposition used1960
last opposition used2024
residual rms (arc-secs)0.68
perturbers coarse indicatorM-v
perturbers precise indicator003Ek
first observation date used1960-09-26.0
last observation date used2024-02-09.0
computer nameMPCLINUX
JD of orbit computation2456819.610959
perihelion JD uncertainty (days)8.6255E-05
argument of perihelion uncertainty (°)4.9801E-05
ascending node uncertainty (°)4.7147E-05
inclination uncertainty (°)4.2852E-06
eccentricity uncertainty 2.4275E-08
perihelion distance uncertainty (AU)7.6930E-08
Minimum Orbit Intersection Distances (in AU)
for orbit epoch: 2460400.5, reference: E2024-GD4
Mercury2.41878
Venus2.00726
Earth1.74406
Mars1.16492
Jupiter1.66365
Saturn6.26773
Uranus15.183
Neptune26.7897

Observations

514 total observations over interval: 1960 09 26.26528 – 2024 02 09.316008
These data are available for download (format description).

Date (UT) J2000 RA J2000 Dec Magn Location Ref
1960 09 26.26528 00 00 17.86 -00 57 36.3 20.3   675 – Palomar Mountain MPS 285478
1960 09 26.28541 00 00 17.00 -00 57 41.3 20.5   675 – Palomar Mountain MPS 285478
1960 09 27.30972 23 59 29.86 -01 01 39.1 20.1 V 675 – Palomar Mountain MPS 285478
1960 09 28.31736 23 58 43.65 -01 05 30.4 20.8   675 – Palomar Mountain MPS 285478
1960 09 28.33750 23 58 42.70 -01 05 35.5 19.7   675 – Palomar Mountain MPS 285478
1996 02 16.11590 08 39 17.20 +22 59 31.3   691 – Steward Observatory, Kitt Peak-Spacewatch MPS 178317
1996 02 16.13884 08 39 16.18 +22 59 32.7 20.1 V 691 – Steward Observatory, Kitt Peak-Spacewatch MPS 178317
1996 02 16.16155 08 39 15.14 +22 59 35.3   691 – Steward Observatory, Kitt Peak-Spacewatch MPS 178317
2000 11 20.29393 03 54 15.46 +24 36 16.2 19.0   704 – Lincoln Laboratory ETS, New Mexico MPS 155262
2000 11 20.31115 03 54 14.47 +24 36 14.1 19.7   704 – Lincoln Laboratory ETS, New Mexico MPS 155262
2000 11 20.32615 03 54 13.67 +24 36 12.4 19.5   704 – Lincoln Laboratory ETS, New Mexico MPS 155262
2000 11 20.34117 03 54 12.81 +24 36 12.1 19.7   704 – Lincoln Laboratory ETS, New Mexico MPS 155262
2000 11 20.35620 03 54 11.95 +24 36 11.1 18.7   704 – Lincoln Laboratory ETS, New Mexico MPS 155262
2002 02 13.38466 11 23 46.15 +06 34 25.5 20.8 V 291 – LPL/Spacewatch II MPS 127140
2002 02 13.40627 11 23 45.31 +06 34 29.8 20.8 V 291 – LPL/Spacewatch II MPS 127140
2002 02 13.42642 11 23 44.51 +06 34 34.1 20.4 V 291 – LPL/Spacewatch II MPS 127140
2002 03 05.231600 11 09 09.794 +07 51 49.18 19.86 V 645 – Apache Point-Sloan Digital Sky Survey MPS 127140
2002 03 05.235072 11 09 09.624 +07 51 50.00 20.61   645 – Apache Point-Sloan Digital Sky Survey MPS 127140
2002 03 12.245710 11 03 37.550 +08 18 58.56 20.25 V 645 – Apache Point-Sloan Digital Sky Survey MPS 127140
2002 03 12.249182 11 03 37.383 +08 18 59.34 20.97   645 – Apache Point-Sloan Digital Sky Survey MPS 127140
2002 03 12.47150 11 03 26.79 +08 19 49.0 20.0   644 – Palomar Mountain/NEAT MPS 55013
2002 03 12.48178 11 03 26.28 +08 19 51.4 20.0   644 – Palomar Mountain/NEAT MPS 55013
2002 03 12.49219 11 03 25.80 +08 19 53.6 20.0   644 – Palomar Mountain/NEAT MPS 55013
2002 03 16.24061 11 00 34.56 +08 33 18.4 19.6   704 – Lincoln Laboratory ETS, New Mexico MPS 55013
2002 03 16.25403 11 00 33.97 +08 33 20.0 20.3   704 – Lincoln Laboratory ETS, New Mexico MPS 55013
2002 03 16.26744 11 00 33.26 +08 33 24.6 19.9   704 – Lincoln Laboratory ETS, New Mexico MPS 55013
2002 03 16.28087 11 00 32.68 +08 33 27.2 20.0   704 – Lincoln Laboratory ETS, New Mexico MPS 55013
2002 03 16.29434 11 00 32.03 +08 33 28.3 20.4   704 – Lincoln Laboratory ETS, New Mexico MPS 55013
2005 08 28.38543 00 12 17.62 -00 14 19.5 20.4 V 691 – Steward Observatory, Kitt Peak-Spacewatch MPS 155262
2005 08 28.40620 00 12 16.94 -00 14 22.9 20.4 V 691 – Steward Observatory, Kitt Peak-Spacewatch MPS 155262
2005 08 28.42355 00 12 16.35 -00 14 25.7 20.4 V 691 – Steward Observatory, Kitt Peak-Spacewatch MPS 155262
2005 09 10.298877 00 04 10.237 -00 56 13.44 20.63 V 645 – Apache Point-Sloan Digital Sky Survey MPS 390023
2005 09 10.29924 00 04 10.24 -00 56 13.4 20.7   705 – Apache Point MPS 211683
2005 09 10.30007 00 04 10.20 -00 56 13.5 20.3 V 705 – Apache Point MPS 211683
2005 09 10.302349 00 04 10.083 -00 56 14.20 21.55   645 – Apache Point-Sloan Digital Sky Survey MPS 390023
2005 09 11.34938 00 03 25.13 -01 00 05.7 19.9 V 691 – Steward Observatory, Kitt Peak-Spacewatch MPS 155262
2005 09 11.36678 00 03 24.34 -01 00 09.5 20.0 V 691 – Steward Observatory, Kitt Peak-Spacewatch MPS 155262
2005 09 11.38420 00 03 23.57 -01 00 13.2 19.8 V 691 – Steward Observatory, Kitt Peak-Spacewatch MPS 155262
2005 09 14.27735 00 01 16.65 -01 11 07.1 20.3   705 – Apache Point MPS 211683
2005 09 14.27818 00 01 16.61 -01 11 07.4 19.8 V 705 – Apache Point MPS 211683
2005 09 22.32624 23 55 08.69 -01 42 20.6 19.3 R 644 – Palomar Mountain/NEAT MPS 147421
2005 09 22.34864 23 55 07.59 -01 42 25.9 19.3 R 644 – Palomar Mountain/NEAT MPS 147421
2005 09 22.37173 23 55 06.51 -01 42 31.1 19.5 R 644 – Palomar Mountain/NEAT MPS 147421
2005 09 29.29134 23 49 47.85 -02 08 59.2 19.8 V G96 – Mt. Lemmon Survey MPS 147421
2005 09 29.29727 23 49 47.60 -02 09 00.4 19.7 V G96 – Mt. Lemmon Survey MPS 147421
2005 09 29.30318 23 49 47.28 -02 09 01.6 20.0 V G96 – Mt. Lemmon Survey MPS 147421
2005 09 29.30910 23 49 46.99 -02 09 03.1 19.8 V G96 – Mt. Lemmon Survey MPS 147421
2005 10 13.10010 23 40 13.05 -02 54 02.4 20.4 V 691 – Steward Observatory, Kitt Peak-Spacewatch MPS 155262
2005 10 13.11548 23 40 12.45 -02 54 05.6 20.5 V 691 – Steward Observatory, Kitt Peak-Spacewatch MPS 155262
2005 10 13.13093 23 40 11.87 -02 54 07.9 20.0 V 691 – Steward Observatory, Kitt Peak-Spacewatch MPS 155262
2005 10 25.20524 23 34 07.60 -03 18 18.7 19.5 V G96 – Mt. Lemmon Survey MPS 155263
2005 10 25.21232 23 34 07.42 -03 18 18.8 19.9 V G96 – Mt. Lemmon Survey MPS 155263
2005 10 25.21939 23 34 07.24 -03 18 19.7 19.8 V G96 – Mt. Lemmon Survey MPS 155263
2005 10 25.22647 23 34 07.10 -03 18 20.4 19.7 V G96 – Mt. Lemmon Survey MPS 155263
2005 11 25.17591 23 32 44.01 -02 53 18.1 21.1 V G96 – Mt. Lemmon Survey MPS 152000
2005 11 25.18222 23 32 44.12 -02 53 17.3 21.0 V G96 – Mt. Lemmon Survey MPS 152000
2005 11 25.18830 23 32 44.23 -02 53 16.1 20.8 V G96 – Mt. Lemmon Survey MPS 152000
2005 11 25.19437 23 32 44.30 -02 53 15.1 20.9 V G96 – Mt. Lemmon Survey MPS 152000
2005 12 02.08427 23 35 16.18 -02 30 36.2 20.7 V G96 – Mt. Lemmon Survey MPS 153626
2005 12 02.09228 23 35 16.36 -02 30 34.2 20.8 V G96 – Mt. Lemmon Survey MPS 153626
2005 12 02.10034 23 35 16.54 -02 30 32.4 20.9 V G96 – Mt. Lemmon Survey MPS 153626
2005 12 02.10835 23 35 16.76 -02 30 30.5 20.8 V G96 – Mt. Lemmon Survey MPS 153626
2006 12 18.33520 07 22 44.23 +27 27 54.3 19.2   704 – Lincoln Laboratory ETS, New Mexico MPS 191961
2006 12 18.34811 07 22 43.60 +27 27 55.5 19.8   704 – Lincoln Laboratory ETS, New Mexico MPS 191961
2006 12 18.36110 07 22 42.98 +27 27 58.0 19.6   704 – Lincoln Laboratory ETS, New Mexico MPS 191961
2006 12 18.37402 07 22 42.37 +27 27 59.8 19.5   704 – Lincoln Laboratory ETS, New Mexico MPS 191961
2006 12 18.38695 07 22 41.79 +27 28 02.2 19.8   704 – Lincoln Laboratory ETS, New Mexico MPS 191961
2006 12 21.38961 07 20 21.78 +27 34 46.0 20.0 R 644 – Palomar Mountain/NEAT MPS 191961
2006 12 21.41282 07 20 20.56 +27 34 49.2 19.9 R 644 – Palomar Mountain/NEAT MPS 191961
2006 12 21.43342 07 20 19.57 +27 34 51.6 19.4 R 644 – Palomar Mountain/NEAT MPS 191961
2007 01 10.26564 07 02 18.45 +28 07 29.4 19.1   704 – Lincoln Laboratory ETS, New Mexico MPS 195462
2007 01 10.28112 07 02 17.54 +28 07 30.2 19.4   704 – Lincoln Laboratory ETS, New Mexico MPS 195462
2007 01 10.29542 07 02 16.66 +28 07 31.6 19.2   704 – Lincoln Laboratory ETS, New Mexico MPS 195462
2007 01 10.31092 07 02 15.75 +28 07 31.6 19.5   704 – Lincoln Laboratory ETS, New Mexico MPS 195462
2007 01 10.32522 07 02 14.87 +28 07 32.5 19.5   704 – Lincoln Laboratory ETS, New Mexico MPS 195462
2007 01 24.20670 06 50 22.22 +28 11 51.8 19.0   704 – Lincoln Laboratory ETS, New Mexico MPS 196995
2007 01 24.21900 06 50 21.70 +28 11 52.0 19.4   704 – Lincoln Laboratory ETS, New Mexico MPS 196995
2007 01 24.24364 06 50 20.47 +28 11 50.8 19.9   704 – Lincoln Laboratory ETS, New Mexico MPS 196995
2008 03 01.39570 13 10 23.88 -07 16 17.1 20.5 V 691 – Steward Observatory, Kitt Peak-Spacewatch MPS 241867
2008 03 01.41333 13 10 23.40 -07 16 15.4 20.7 V 691 – Steward Observatory, Kitt Peak-Spacewatch MPS 241867
2008 03 01.42859 13 10 22.99 -07 16 14.1 20.6 V 691 – Steward Observatory, Kitt Peak-Spacewatch MPS 241867
2008 03 15.42903 13 02 37.75 -06 40 42.9 20.7 V G96 – Mt. Lemmon Survey MPS 243940
2008 03 15.43336 13 02 37.57 -06 40 42.3 20.8 V G96 – Mt. Lemmon Survey MPS 243940
2008 03 15.43771 13 02 37.42 -06 40 41.9 20.6 V G96 – Mt. Lemmon Survey MPS 243940
2008 03 15.44214 13 02 37.21 -06 40 40.8 20.5 V G96 – Mt. Lemmon Survey MPS 243940
2008 03 27.30593 12 54 10.00 -05 58 52.9 20.3 V G96 – Mt. Lemmon Survey MPS 244504
2008 03 27.31572 12 54 09.57 -05 58 50.8 20.2 V G96 – Mt. Lemmon Survey MPS 244504
2008 03 27.32545 12 54 09.10 -05 58 48.1 20.3 V G96 – Mt. Lemmon Survey MPS 244504
